This demonstration page uses our WeatherBlox Daily Observations layout. Learn more.

Left ArrowRight Arrow

31.84235, -102.49876

Hourly Observations for May 19, 2015

Temp ( °F °C ) Dew Point ( °F °C ) Humidity (%) Winds ( mph kmh ) Pressure ( in mb ) Visibility ( mi km ) Precip ( " mm )
12:53 am 00:53 Partly Cloudy 66 18.9 61 16.1 84 84 ESE 18 30 29.91 1013 10 16 0.00 0.03
1:13 am 01:13 Mostly Cloudy 65 18.3 61 16.1 87 87 ESE 22 35 29.94 1014 10 16 0.00 0.00
1:33 am 01:33 Cloudy 65 18.3 61 16.1 87 87 ESE 21 33 29.94 1014 10 16 0.00 0.00
1:53 am 01:53 Mostly Cloudy 64 17.8 60 15.6 87 87 ESE 26 43 29.91 1013 10 16 0.00 0.00
2:09 am 02:09 Partly Cloudy 64 17.8 59 15 84 84 ESE 23 37 29.94 1014 10 16 0.00 0.00
2:53 am 02:53 Clear 63 17.2 59 15 87 87 ESE 18 30 29.89 1012 10 16 0.00 0.00
3:53 am 03:53 Mostly Cloudy with Light Rain 65 18.3 58 14.4 78 78 ESE 21 33 29.87 1011 10 16 0.00 0.03
4:49 am 04:49 Cloudy with Light Rain 64 18 59 15 83 83 SE 23 37 29.91 1013 10 16 0.00 0.03
4:53 am 04:53 Cloudy with Light Rain 65 18.3 59 15 81 81 ESE 20 31 29.86 1011 10 16 0.00 0.03
5:53 am 05:53 Cloudy 65 18.3 58 14.4 78 78 SE 21 33 29.85 1011 10 16 0.00 0.03
6:11 am 06:11 Cloudy with Nearby Thunderstorms 64 17.8 58 14.4 81 81 SE 22 35 29.88 1012 10 16 0.00 0.00
6:26 am 06:26 Cloudy 65 18.3 59 15 81 81 SE 20 31 29.88 1012 10 16 0.00 0.00
6:53 am 06:53 Mostly Cloudy 65 18.3 60 15.6 84 84 SE 16 26 29.86 1011 10 16 0.00 0.00
7:53 am 07:53 Cloudy 67 19.4 61 16.1 81 81 SSE 18 30 29.85 1011 8 13 0.00 0.00
8:53 am 08:53 Cloudy 68 20 63 17.2 84 84 SSE 23 37 29.86 1011 9 14 0.00 0.00
9:24 am 09:24 Cloudy 68 20 63 17.2 84 84 SSE 21 33 29.88 1012 8 13 0.00 0.00
9:53 am 09:53 Cloudy 69 20.6 64 17.8 84 84 SSE 21 33 29.89 1012 7 11 0.00 0.00
10:53 am 10:53 Cloudy with Haze 71 21.7 65 18.3 81 81 S 20 31 29.88 1012 6 10 0.00 0.00
11:26 am 11:26 Cloudy 73 22.8 66 18.9 79 79 S 17 28 29.85 1011 7 11 0.00 0.00
11:53 am 11:53 Cloudy 75 23.9 66 18.9 74 74 S 17 28 29.88 1012 7 11 0.00 0.00
12:11 pm 12:11 Cloudy 76 24.4 67 19.4 74 74 S 20 31 29.85 1011 7 11 0.00 0.00
12:49 pm 12:49 Mostly Cloudy 79 26 66 19 65 65 S 16 26 29.83 1010 8 13 0.00 0.00
12:53 pm 12:53 Mostly Cloudy 79 26.1 67 19.4 67 67 S 15 24 29.86 1011 8 13 0.00 0.00
1:53 pm 13:53 Partly Cloudy 81 27.2 64 17.8 57 57 SSW 15 24 29.85 1011 9 14 0.00 0.00
2:53 pm 14:53 Partly Cloudy 82 27.8 63 17.2 53 53 SSW 12 19 29.82 1010 10 16 0.00 0.00
3:53 pm 15:53 Partly Cloudy 83 28.3 63 17.2 51 51 SSW 10 17 29.79 1009 10 16 0.00 0.00
4:53 pm 16:53 Mostly Sunny 84 28.9 64 17.8 51 51 S 18 30 29.77 1008 10 16 0.00 0.00
5:53 pm 17:53 Sunny 84 28.9 64 17.8 51 51 SSE 13 20 29.74 1007 10 16 0.00 0.00
6:53 pm 18:53 Sunny 83 28.3 63 17.2 51 51 SSE 15 24 29.74 1007 10 16 0.00 0.00
7:53 pm 19:53 Sunny 81 27.2 65 18.3 58 58 S 14 22 29.75 1007 9 14 0.00 0.00
8:53 pm 20:53 Clear 78 25.6 67 19.4 69 69 SSE 16 26 29.76 1008 7 11 0.00 0.00
9:53 pm 21:53 Clear 76 24.4 67 19.4 74 74 SSE 13 20 29.77 1008 7 11 0.00 0.00
10:53 pm 22:53 Hazy 74 23.3 66 18.9 76 76 S 14 22 29.78 1009 6 10 0.00 0.00
11:53 pm 23:53 Hazy 72 22.2 65 18.3 79 79 S 14 22 29.80 1009 6 10 0.00 0.00

Powered by AerisWeather